• In Uzbekistan
  • List of Countries
  • For 7 days
  • Water Temperature
  • Satellite Maps
  • Weather Map
  • Weather Widgets
  • user-avatar
    Login

    Hourly Weather Szekszard

    Today, 20 October, Friday

    Time Temperature Precipitation Wind Pressure Humidity
    00:00 +14°C° 0 mm 1 mps 754 mmHg 67%
    01:00 +12°C° 0 mm 0 mps 754 mmHg 69%
    02:00 +12°C° 0 mm 0 mps 754 mmHg 70%
    03:00 +12°C° 0 mm 0 mps 754 mmHg 71%
    04:00 +11°C° 0 mm 0 mps 754 mmHg 73%
    05:00 +12°C° 0 mm 0 mps 754 mmHg 72%
    06:00 +12°C° 0 mm 0 mps 755 mmHg 72%
    07:00 +12°C° 0 mm 0 mps 755 mmHg 72%
    08:00 +15°C° 0 mm 1 mps 755 mmHg 63%
    09:00 +18°C° 0 mm 1 mps 755 mmHg 55%
    10:00 +21°C° 0 mm 1 mps 756 mmHg 46%
    11:00 +21°C° 0 mm 2 mps 755 mmHg 42%
    12:00 +23°C° 0 mm 2 mps 755 mmHg 37%
    13:00 +25°C° 0 mm 2 mps 755 mmHg 32%
    14:00 +24°C° 0 mm 2 mps 755 mmHg 33%
    15:00 +24°C° 0 mm 2 mps 755 mmHg 35%
    16:00 +23°C° 0 mm 1 mps 754 mmHg 36%
    17:00 +22°C° 0 mm 1 mps 755 mmHg 40%
    18:00 +20°C° 0 mm 1 mps 755 mmHg 44%
    19:00 +18°C° 0 mm 1 mps 755 mmHg 48%
    20:00 +18°C° 0 mm 1 mps 755 mmHg 51%
    21:00 +18°C° 0 mm 1 mps 755 mmHg 53%
    22:00 +16°C° 0 mm 1 mps 756 mmHg 55%
    23:00 +16°C° 0 mm 1 mps 756 mmHg 58%

    Tomorrow, 21 October, Saturday

    Time Temperature Precipitation Wind Pressure Humidity
    00:00 +15°C° 0 mm 1 mps 756 mmHg 61%
    01:00 +15°C° 0 mm 1 mps 756 mmHg 64%
    02:00 +14°C° 0 mm 1 mps 756 mmHg 69%
    03:00 +14°C° 0 mm 2 mps 756 mmHg 73%
    04:00 +13°C° 0 mm 2 mps 756 mmHg 77%
    05:00 +13°C° 0 mm 2 mps 756 mmHg 79%
    06:00 +13°C° 0 mm 2 mps 756 mmHg 80%
    07:00 +13°C° 0 mm 2 mps 756 mmHg 82%
    08:00 +15°C° 0 mm 2 mps 756 mmHg 73%
    09:00 +17°C° 0 mm 2 mps 756 mmHg 64%
    10:00 +18°C° 0 mm 2 mps 756 mmHg 55%
    11:00 +20°C° 0 mm 2 mps 756 mmHg 50%
    12:00 +21°C° 0 mm 2 mps 755 mmHg 46%
    13:00 +23°C° 0 mm 2 mps 755 mmHg 41%
    14:00 +21°C° 0 mm 2 mps 755 mmHg 42%
    15:00 +21°C° 0 mm 2 mps 754 mmHg 43%
    16:00 +22°C° 0 mm 1 mps 754 mmHg 44%
    17:00 +20°C° 0 mm 1 mps 754 mmHg 49%
    18:00 +19°C° 0 mm 1 mps 754 mmHg 53%
    19:00 +15°C° 0 mm 0 mps 754 mmHg 57%
    20:00 +15°C° 0 mm 0 mps 754 mmHg 59%
    21:00 +16°C° 0 mm 1 mps 754 mmHg 61%
    22:00 +15°C° 0 mm 1 mps 754 mmHg 63%
    23:00 +15°C° 0 mm 1 mps 754 mmHg 65%

    Day after tomorrow, 22 October, Sunday

    Time Temperature Precipitation Wind Pressure Humidity
    00:00 +15°C° 0 mm 1 mps 754 mmHg 67%
    01:00 +14°C° 0 mm 1 mps 754 mmHg 69%
    02:00 +14°C° 0 mm 1 mps 754 mmHg 71%
    03:00 +13°C° 0 mm 0 mps 754 mmHg 73%
    04:00 +12°C° 0 mm 0 mps 753 mmHg 74%
    05:00 +12°C° 0 mm 0 mps 754 mmHg 74%
    06:00 +12°C° 0 mm 0 mps 754 mmHg 74%
    07:00 +13°C° 0 mm 0 mps 754 mmHg 74%
    08:00 +14°C° 0 mm 0 mps 754 mmHg 67%
    09:00 +18°C° 0 mm 1 mps 754 mmHg 61%
    10:00 +20°C° 0 mm 1 mps 754 mmHg 55%
    11:00 +21°C° 0 mm 1 mps 753 mmHg 52%
    12:00 +21°C° 0 mm 1 mps 752 mmHg 50%
    13:00 +22°C° 0 mm 1 mps 752 mmHg 47%
    14:00 +22°C° 0 mm 1 mps 751 mmHg 48%
    15:00 +21°C° 0 mm 1 mps 751 mmHg 50%
    16:00 +21°C° 0 mm 1 mps 750 mmHg 51%
    17:00 +20°C° 0.1 mm 1 mps 750 mmHg 54%
    18:00 +19°C° 0.1 mm 1 mps 750 mmHg 57%
    19:00 +17°C° 0.1 mm 2 mps 750 mmHg 59%
    20:00 +17°C° 0.6 mm 2 mps 750 mmHg 63%
    21:00 +16°C° 0.6 mm 2 mps 749 mmHg 67%
    22:00 +16°C° 0.6 mm 2 mps 749 mmHg 70%
    23:00 +15°C° 3 mm 2 mps 749 mmHg 76%

    23 October, Monday

    Time Temperature Precipitation Wind Pressure Humidity
    00:00 +15°C° 3 mm 2 mps 749 mmHg 82%
    01:00 +14°C° 3 mm 2 mps 748 mmHg 88%
    02:00 +13°C° 1.2 mm 3 mps 748 mmHg 88%
    03:00 +13°C° 1.2 mm 4 mps 748 mmHg 88%
    04:00 +12°C° 1.2 mm 5 mps 747 mmHg 88%
    05:00 +12°C° 2.3 mm 5 mps 747 mmHg 87%
    06:00 +11°C° 2.3 mm 6 mps 747 mmHg 87%
    07:00 +10°C° 2.3 mm 7 mps 747 mmHg 86%
    08:00 +10°C° 1 mm 7 mps 748 mmHg 86%
    09:00 +10°C° 1 mm 7 mps 748 mmHg 85%
    10:00 +10°C° 1 mm 7 mps 748 mmHg 85%
    11:00 +10°C° 0.4 mm 8 mps 748 mmHg 84%
    12:00 +9°C° 0.4 mm 8 mps 748 mmHg 84%
    13:00 +9°C° 0.4 mm 8 mps 748 mmHg 83%
    14:00 +9°C° 0.6 mm 8 mps 748 mmHg 83%
    15:00 +8°C° 0.6 mm 9 mps 749 mmHg 83%
    16:00 +8°C° 0.6 mm 9 mps 749 mmHg 83%
    17:00 +8°C° 0.7 mm 9 mps 749 mmHg 84%
    18:00 +8°C° 0.7 mm 9 mps 750 mmHg 84%
    19:00 +8°C° 0.7 mm 9 mps 750 mmHg 84%
    20:00 +8°C° 0.9 mm 9 mps 750 mmHg 85%
    21:00 +8°C° 0.9 mm 9 mps 751 mmHg 85%
    22:00 +7°C° 0.9 mm 9 mps 751 mmHg 85%
    23:00 +9°C° 0.9 mm 8 mps 751 mmHg 86%

    24 October, Tuesday

    Time Temperature Precipitation Wind Pressure Humidity
    00:00 +9°C° 0.9 mm 8 mps 751 mmHg 86%
    01:00 +9°C° 0.9 mm 8 mps 752 mmHg 87%
    02:00 +9°C° 0.6 mm 8 mps 752 mmHg 86%
    03:00 +9°C° 0.6 mm 8 mps 752 mmHg 86%
    04:00 +9°C° 0.6 mm 8 mps 753 mmHg 86%
    05:00 +9°C° 0.4 mm 8 mps 753 mmHg 85%
    06:00 +9°C° 0.4 mm 8 mps 754 mmHg 84%
    07:00 +9°C° 0.4 mm 8 mps 754 mmHg 84%
    08:00 +9°C° 0.5 mm 8 mps 754 mmHg 83%
    09:00 +9°C° 0.5 mm 7 mps 755 mmHg 82%
    10:00 +10°C° 0.5 mm 7 mps 755 mmHg 81%
    11:00 +10°C° 0.2 mm 7 mps 756 mmHg 80%
    12:00 +11°C° 0.2 mm 7 mps 756 mmHg 78%
    13:00 +11°C° 0.2 mm 7 mps 756 mmHg 77%
    14:00 +11°C° 0.1 mm 6 mps 756 mmHg 77%
    15:00 +11°C° 0.1 mm 6 mps 756 mmHg 77%
    16:00 +12°C° 0.1 mm 5 mps 756 mmHg 77%
    17:00 +12°C° 0.1 mm 5 mps 757 mmHg 78%
    18:00 +10°C° 0.1 mm 6 mps 757 mmHg 79%
    19:00 +10°C° 0.1 mm 6 mps 757 mmHg 79%
    20:00 +10°C° 0.2 mm 5 mps 757 mmHg 80%
    21:00 +9°C° 0.2 mm 5 mps 758 mmHg 80%
    22:00 +9°C° 0.2 mm 5 mps 758 mmHg 81%
    23:00 +10°C° 0.2 mm 4 mps 758 mmHg 82%

    25 October, Wednesday

    Time Temperature Precipitation Wind Pressure Humidity
    00:00 +8°C° 0.2 mm 4 mps 758 mmHg 82%
    01:00 +8°C° 0.2 mm 4 mps 758 mmHg 83%
    02:00 +8°C° 0.1 mm 4 mps 759 mmHg 84%
    03:00 +7°C° 0.1 mm 4 mps 759 mmHg 84%
    04:00 +7°C° 0.1 mm 4 mps 759 mmHg 85%
    05:00 +7°C° 0 mm 4 mps 759 mmHg 86%
    06:00 +7°C° 0 mm 4 mps 759 mmHg 86%
    07:00 +7°C° 0 mm 4 mps 760 mmHg 87%
    08:00 +8°C° 0 mm 4 mps 760 mmHg 83%
    09:00 +10°C° 0 mm 4 mps 761 mmHg 79%
    10:00 +11°C° 0 mm 4 mps 761 mmHg 75%
    11:00 +13°C° 0 mm 4 mps 761 mmHg 72%
    12:00 +14°C° 0 mm 4 mps 761 mmHg 69%
    13:00 +16°C° 0 mm 3 mps 761 mmHg 65%
    14:00 +14°C° 0 mm 3 mps 762 mmHg 66%
    15:00 +14°C° 0 mm 3 mps 762 mmHg 67%
    16:00 +14°C° 0 mm 3 mps 762 mmHg 68%
    17:00 +13°C° 0 mm 3 mps 762 mmHg 71%
    18:00 +13°C° 0 mm 2 mps 763 mmHg 74%
    19:00 +12°C° 0 mm 2 mps 763 mmHg 77%
    20:00 +12°C° 0 mm 2 mps 763 mmHg 79%
    21:00 +10°C° 0 mm 2 mps 764 mmHg 80%
    22:00 +10°C° 0 mm 2 mps 764 mmHg 82%
    23:00 +10°C° 0 mm 2 mps 764 mmHg 82%
    Show more